Flag Weather past 2 weeks in Gloucester, Massachusetts, U.S.A.

Now
39 °F

Clear.


Feels Like: 37 °F
Forecast: 44 / 52 °F
Wind: 3 mph from North

Location: Beverly Municipal Airport

Current Time: Oct 31, 2014 at 2:36:38 AM

Latest Report: Oct 31, 2014 at 1:53 AM


Visibility: 10 mi

Pressure: 29.99 "Hg

Humidity: 86%

Dew point: 35 °F

Location of GloucesterLocation

Historic Weather in Gloucester — Graph

°F

Gloucester temperature yesterday

Maximum temperature yesterday: 57 °F (at 12:53 PM)
Minimum temperature yesterday: 38 °F (at 11:53 PM)
Average temperature yesterday: 48 °F

Past Weeks' High & Low Weather Summary

 TemperatureHumidityPressure
High73 °F (Oct 17, 1:53 PM)100% (Oct 29, 7:04 AM)30.07 "Hg (Oct 29, 7:04 AM)
Low34 °F (Oct 20, 6:53 AM)34% (Oct 20, 3:53 PM)29.41 "Hg (Oct 26, 5:53 AM)
Average53 °F76%29.78 "Hg
* Reported Oct 16 1:00 AM — Oct 31 12:53 AM, Gloucester, Weather by CustomWeather, © 2014

Note: Actual official high and low records may vary slightly from our data, if they occured in-between our weather recording intervals... More about our weather records

Advertising

Gloucester weather history for previous 24 hours

 ConditionsComfort  
Time TempWeatherWind HumidityBarometerVisibility
12:53 AM
Oct 31
37 °FPassing clouds.6 mph89%29.99 "Hg10 mi
11:53 PM
Oct 30
38 °FClear.No wind90%29.98 "Hg10 mi
10:53 PM40 °FClear.3 mph86%29.97 "Hg10 mi
9:53 PM43 °FClear.5 mph79%29.96 "Hg10 mi
8:53 PM43 °FClear.5 mph79%29.96 "Hg10 mi
7:53 PM46 °FClear.No wind77%29.95 "Hg10 mi
6:53 PM48 °FPassing clouds.No wind71%29.94 "Hg10 mi
5:53 PM52 °FOvercast.5 mph61%29.92 "Hg10 mi
4:53 PM54 °FOvercast.9 mph55%29.91 "Hg10 mi
3:53 PM55 °FOvercast.7 mph51%29.90 "Hg10 mi
2:53 PM57 °FOvercast.5 mph49%29.89 "Hg10 mi
1:53 PM56 °FOvercast.10 mph49%29.89 "Hg10 mi
12:53 PM57 °FPassing clouds.8 mph49%29.89 "Hg10 mi
11:53 AM56 °FPassing clouds.12 mph53%29.90 "Hg10 mi
10:53 AM52 °FOvercast.7 mph66%29.91 "Hg10 mi
9:53 AM49 °FOvercast.8 mph74%29.91 "Hg10 mi
8:53 AM47 °FOvercast.6 mph80%29.91 "Hg10 mi
7:53 AM39 °FClear.No wind93%29.90 "Hg10 mi
6:53 AM41 °FClear.3 mph89%29.90 "Hg10 mi
5:53 AM41 °FClear.No wind89%29.88 "Hg10 mi
4:53 AM42 °FClear.3 mph92%29.87 "Hg10 mi
3:53 AM43 °FClear.3 mph89%29.86 "Hg10 mi
2:53 AM45 °FClear.No wind90%29.87 "Hg10 mi
Weather by CustomWeather, © 2014

See weather overviewHow to use our weather pages